TimeEST,TemperatureF,Dew PointF,Humidity,Sea Level PressureIn,VisibilityMPH,Wind Direction,Wind SpeedMPH,Gust SpeedMPH,PrecipitationIn,Events,Conditions,WindDirDegrees,DateUTC
12:24 AM,41.0,39.9,96,30.00,0.2,Calm,Calm,-,N/A,Fog,Fog,0,2014-01-15 05:24:00
12:31 AM,42.1,39.9,92,30.00,0.5,Calm,Calm,-,N/A,Fog,Fog,0,2014-01-15 05:31:00
12:44 AM,42.1,39.9,92,29.99,0.2,Calm,Calm,-,N/A,Fog,Fog,0,2014-01-15 05:44:00
12:54 AM,42.1,39.9,92,29.99,0.2,Calm,Calm,-,N/A,Fog,Fog,0,2014-01-15 05:54:00
1:21 AM,41.0,39.9,96,30.00,0.2,Calm,Calm,-,N/A,Fog,Fog,0,2014-01-15 06:21:00
1:52 AM,41.0,39.2,93,30.00,0.5,Calm,Calm,-,N/A,Fog,Fog,0,2014-01-15 06:52:00
1:54 AM,41.0,39.0,93,29.99,0.5,SE,3.5,-,N/A,Fog,Fog,140,2014-01-15 06:54:00
2:05 AM,41.0,39.0,93,30.00,0.2,SE,3.5,-,N/A,Fog,Fog,130,2014-01-15 07:05:00
2:54 AM,39.9,39.0,97,29.99,0.2,Calm,Calm,-,N/A,Fog,Fog,0,2014-01-15 07:54:00
3:16 AM,39.9,39.0,97,30.01,0.5,Calm,Calm,-,N/A,Fog,Fog,0,2014-01-15 08:16:00
3:23 AM,39.0,37.9,96,30.01,0.2,SSE,3.5,-,N/A,Fog,Fog,160,2014-01-15 08:23:00
3:54 AM,39.0,37.0,93,29.99,0.2,Calm,Calm,-,N/A,Fog,Fog,0,2014-01-15 08:54:00
4:54 AM,37.0,36.0,96,29.98,0.5,Calm,Calm,-,N/A,Fog,Fog,0,2014-01-15 09:54:00
5:22 AM,37.0,35.1,93,30.00,0.2,Calm,Calm,-,N/A,Fog,Fog,0,2014-01-15 10:22:00
5:34 AM,36.0,35.1,97,30.00,0.5,Calm,Calm,-,N/A,Fog,Fog,0,2014-01-15 10:34:00
5:46 AM,36.0,34.0,93,29.99,0.5,Calm,Calm,-,N/A,Fog,Fog,0,2014-01-15 10:46:00
5:54 AM,36.0,34.0,93,29.99,0.5,Calm,Calm,-,N/A,Fog,Fog,0,2014-01-15 10:54:00
6:01 AM,36.0,35.1,97,30.00,0.2,Calm,Calm,-,N/A,Fog,Fog,0,2014-01-15 11:01:00
6:14 AM,36.0,35.1,97,30.00,0.5,Calm,Calm,-,N/A,Fog,Fog,0,2014-01-15 11:14:00
6:51 AM,36.0,35.1,97,29.98,0.2,Calm,Calm,-,N/A,Fog,Fog,0,2014-01-15 11:51:00
7:22 AM,37.9,36.0,93,29.99,0.2,North,4.6,-,N/A,Fog,Fog,350,2014-01-15 12:22:00
7:54 AM,37.0,36.0,96,29.99,0.2,Calm,Calm,-,N/A,Fog,Fog,0,2014-01-15 12:54:00
8:18 AM,37.0,36.0,96,30.00,0.5,Calm,Calm,-,N/A,Fog,Fog,0,2014-01-15 13:18:00
8:31 AM,37.9,37.0,97,30.00,0.2,Calm,Calm,-,N/A,Fog,Fog,0,2014-01-15 13:31:00
8:54 AM,39.9,37.9,93,30.00,0.2,Calm,Calm,-,N/A,Fog,Fog,0,2014-01-15 13:54:00
9:13 AM,42.1,39.9,92,30.01,0.5,NNW,3.5,-,N/A,,Mostly Cloudy,330,2014-01-15 14:13:00
9:42 AM,44.1,42.1,93,30.01,0.5,North,3.5,-,N/A,Fog,Fog,350,2014-01-15 14:42:00
9:54 AM,44.1,43.0,96,30.00,0.2,Calm,Calm,-,N/A,Fog,Fog,0,2014-01-15 14:54:00
10:01 AM,45.0,44.1,97,30.01,0.2,Calm,Calm,-,N/A,Fog,Fog,0,2014-01-15 15:01:00
10:25 AM,48.0,46.0,93,30.00,2.0,Calm,Calm,-,N/A,Fog,Fog,0,2014-01-15 15:25:00
10:45 AM,48.9,46.9,93,29.99,10.0,Calm,Calm,-,N/A,,Mostly Cloudy,0,2014-01-15 15:45:00
10:54 AM,50.0,46.0,86,29.98,10.0,Calm,Calm,-,N/A,,Mostly Cloudy,0,2014-01-15 15:54:00
11:54 AM,54.0,44.1,69,29.94,10.0,Calm,Calm,-,N/A,,Mostly Cloudy,0,2014-01-15 16:54:00
12:54 PM,57.9,37.9,47,29.91,10.0,West,9.2,-,N/A,,Mostly Cloudy,280,2014-01-15 17:54:00
1:54 PM,59.0,37.9,46,29.87,10.0,West,6.9,-,N/A,,Mostly Cloudy,270,2014-01-15 18:54:00
2:54 PM,59.0,39.0,48,29.86,10.0,West,8.1,-,N/A,,Mostly Cloudy,270,2014-01-15 19:54:00
3:54 PM,57.9,37.0,46,29.86,10.0,SSW,3.5,-,N/A,,Mostly Cloudy,210,2014-01-15 20:54:00
4:54 PM,55.9,42.1,60,29.88,10.0,NNW,3.5,-,N/A,,Mostly Cloudy,330,2014-01-15 21:54:00
5:54 PM,50.0,43.0,77,29.87,10.0,SE,3.5,-,N/A,,Clear,140,2014-01-15 22:54:00
6:54 PM,48.0,42.1,80,29.88,10.0,ESE,3.5,-,N/A,,Clear,110,2014-01-15 23:54:00
7:54 PM,46.0,43.0,89,29.88,10.0,Calm,Calm,-,N/A,,Clear,0,2014-01-16 00:54:00
8:54 PM,46.0,43.0,89,29.88,10.0,Calm,Calm,-,N/A,,Clear,0,2014-01-16 01:54:00
9:54 PM,45.0,42.1,90,29.88,10.0,Calm,Calm,-,N/A,,Mostly Cloudy,0,2014-01-16 02:54:00
10:54 PM,43.0,41.0,93,29.87,10.0,WSW,3.5,-,N/A,,Mostly Cloudy,240,2014-01-16 03:54:00
11:54 PM,44.1,41.0,89,29.86,10.0,Calm,Calm,-,N/A,,Mostly Cloudy,0,2014-01-16 04:54:00